MTSAT-2

Last updated on Dec. 11, 2016, 12:16 a.m. UTC

1 28937U 06004A   16345.84195400 -.00000240  00000-0  00000+0 0  9995
2 28937   0.0469  96.4650 0003507 173.7713 257.8415  1.00273719 39503
UTC
Height (km)
Latitude
Longitude
Inclination
Orbital Period
UTC large
Height (km)
Speed (km/s)
/
Latitude / Longitude
Inclination (degrees)
Orbital Period (minutes)
Azimuth
Elevation
Range (km)
Doppler Factor
iOS Compass Heading
iOS Angle

Next 30 passes for location: Hong Kong

Rise time Rise Azimuth (degrees) Set time Set Azimuth (degrees) Duration Max altitude (degrees)

No matching passes for this satellites